Cloud_Cover
0 0 0 0 0 0 0 0 0 5 0 0 0 0 5 3 16 0 5 5 4 4 1 3 0 0 0 43 12 5 77 45 23 50 3 0 0 0 0 2 5 90 19 5 5
0 0 0 0 0 0 0 0 0 3 3 3 4 5 1 9 0 0 0 0 2 0 0 0 0 0 0 0 3 1 77 4 0 0 3 0 4 5 9 28 14 5 65 4 0
0 0 0 0 0 0 0 0 0 0 5 5 5 5 0 20 0 0 0 0 0 0 0 0 0 0 0 0 0 0 10 0 0 0 0 2 44 64 50 38 29 24 2 1 0
0 0 0 0 0 0 0 0 0 0 4 5 5 5 5 0 35 5 2 1 2 2 5 4 5 2 0 0 0 0 0 0 0 0 0 2 5 90 95 42 8 11 0 0 0
0 0 0 0 0 0 0 0 0 0 0 0 5 5 28 1 0 3 5 5 5 2 5 5 2 1 2 2 0 0 0 0 0 0 0 0 5 5 51 5 5 5 0 1 0
0 0 0 0 2 0 0 0 0 0 0 0 3 5 6 0 1 5 5 5 5 5 5 3 3 3 5 5 4 5 4 0 0 0 0 0 1 0 3 0 5 5 5 0 4
5 0 0 0 12 4 0 0 0 0 0 0 0 6 5 0 5 5 5 5 5 5 5 4 2 3 5 5 5 5 0 0 0 0 0 0 2 0 0 3 5 11 98 5 3
9 10 10 10 9 4 15 0 0 0 0 0 2 0 0 0 0 5 5 5 5 5 5 3 5 5 0 3 5 0 6 5 3 3 0 0 5 4 0 0 5 0 5 8 5
3 19 18 19 13 5 7 0 0 0 0 0 0 0 0 0 0 1 5 5 5 5 5 4 5 3 0 5 98 33 41 5 2 0 0 0 0 2 5 0 0 4 5 19 12
18 83 100 100 89 3 6 11 0 7 0 0 0 0 0 0 0 0 2 4 4 5 5 4 5 2 35 93 81 5 2 5 5 3 0 2 0 0 3 0 0 0 0 6 6
100 100 100 100 99 7 26 0 0 0 0 0 0 0 0 0 0 0 5 5 3 2 5 5 5 98 84 5 5 5 0 5 0 2 0 5 0 0 0 1 0 0 0 1 5
100 100 100 100 75 6 10 0 0 0 0 0 0 0 0 0 0 0 0 14 28 14 2 1 6 32 0 0 2 2 0 3 0 0 0 0 0 0 0 0 0 0 0 0 0
100 100 100 77 8 16 0 0 0 0 0 0 0 0 0 0 0 0 0 2 23 95 93 6 43 2 0 0 0 6 11 0 0 0 0 0 24 0 0 0 0 0 0 0 0
100 100 78 13 47 0 0 0 0 0 0 0 0 0 0 0 0 0 0 0 1 32 100 100 81 6 0 0 2 19 12 0 0 0 19 0 98 2 0 0 0 0 0 0 0
36 82 20 26 0 0 0 0 0 0 0 0 0 0 0 0 0 0 0 0 0 0 32 100 100 100 58 2 2 0 0 0 0 0 0 10 12 26 0 0 0 0 0 0 0
2 1 1 30 0 0 0 0 0 0 0 0 0 0 0 0 0 0 0 0 0 0 0 83 99 100 100 100 32 2 0 0 0 0 2 49 18 100 3 0 0 0 0 0 0
0 0 25 0 0 0 0 0 0 0 0 0 0 0 0 0 0 0 0 0 0 0 0 0 15 100 100 100 100 100 1 5 64 97 92 6 0 100 0 0 0 0 0 0 0
0 32 47 0 0 0 0 0 0 0 0 0 0 0 0 0 0 0 0 0 0 0 0 0 0 7 99 100 100 94 100 74 12 24 100 12 0 68 4 0 0 0 0 0 0
22 0 0 0 0 0 0 0 0 0 0 0 0 0 0 0 0 0 0 0 0 0 0 0 0 0 5 6 100 100 51 100 47 94 39 1 4 0 1 1 0 0 0 0 0
0 0 0 0 0 0 0 0 0 0 0 0 0 0 0 0 0 0 0 0 0 0 0 0 0 0 0 3 17 100 98 73 100 100 100 77 4 0 1 1 0 0 0 0 0
0 0 0 0 0 0 0 0 0 0 0 0 0 0 0 0 0 0 0 0 0 0 0 0 0 0 0 0 1 2 100 97 75 92 90 100 100 6 0 5 4 1 0 0 0
0 0 0 0 0 0 0 0 0 0 0 0 0 0 0 0 0 0 0 0 0 0 0 0 0 0 0 0 0 4 5 100 100 96 100 91 100 88 48 0 44 99 5 5 0
0 0 0 0 0 0 0 0 0 0 0 0 0 0 0 0 0 0 0 0 0 0 0 0 0 0 0 0 0 0 0 5 96 100 100 100 100 7 76 63 5 7 68 100 85
0 0 0 0 0 0 0 0 0 0 0 0 0 0 0 0 0 0 0 0 0 0 0 0 0 0 0 0 1 0 0 4 34 100 100 100 100 9 75 100 46 52 32 47 94
0 0 0 0 0 0 0 0 0 0 0 0 0 0 0 0 0 0 0 0 0 0 0 0 0 0 0 0 0 0 0 0 0 54 100 100 100 100 96 28 100 57 65 85 5
0 0 0 0 1 5 5 5 2 1 0 0 0 0 0 0 0 0 0 0 0 0 0 0 0 0 0 0 0 0 0 0 0 0 62 100 100 100 100 100 20 78 37 5 68
0 0 3 5 5 5 5 4 4 0 0 0 0 0 0 0 0 0 0 0 0 0 0 0 0 0 0 0 0 0 0 0 0 0 0 40 100 100 100 100 100 81 3 89 95